カタログに戻る

CZ-4B DEB

運用中SSO
NORAD 38316·DEBRIS·🇨🇳 China

打ち上げ Aug 15, 2011 から Taiyuan Satellite Launch Center

Loading…

次のパス (今後24時間)

TLE

最新Source: Space-Track

元期: Sep 13, 2026, 18:42 UTC

1 38316U 11043F   26256.77952347  .00000117  00000-0  20731-3 0  9990
2 38316  99.3722  81.7397 0229387 101.2644 275.0917 13.50194935649751

AllMySatでCZ-4B DEBをリアルタイム追跡

Download on the App Store